| time (UTC) | temp F | wind direction | speed knots | gust knots | rain 1hr in | rain 24hr in | rain mn in | humidity % | barometer mb |
| 20260503070147 | 54 | 56 | 5.2 | 7.8 | 0.00 | 0.00 | 0.00 | 31 | 867.3 |
| 20260503060139 | 53 | 56 | 6.1 | 9.6 | 0.00 | 0.00 | 0.00 | 40 | 867.3 |
| 20260503050128 | 53 | 53 | 8.7 | 11.3 | 0.00 | 0.00 | 0.00 | 40 | 867.3 |
| 20260503040116 | 52 | 61 | 7.8 | 12.2 | 0.00 | 0.00 | 0.00 | 44 | 867.2 |
| 20260503031857 | 54 | 51 | 12.2 | 20.0 | 0.00 | 0.00 | 0.00 | 39 | 866.7 |
| 20260503020123 | 59 | 259 | 1.7 | 4.3 | 0.00 | 0.00 | 0.00 | 26 | 866.8 |
| 20260503015002 | 57 | 250 | 5.2 | 8.7 | 0.00 | 0.00 | 0.00 | 31 | 866.6 |
| 20260503001912 | 59 | 271 | 10.4 | 13.0 | 0.00 | 0.00 | 0.00 | 29 | 866.7 |
| 20260502233925 | 61 | 206 | 7.8 | 12.2 | 0.00 | 0.00 | 0.00 | 32 | 867.0 |
| 20260502220150 | 61 | 132 | 7.0 | 13.0 | 0.00 | 0.00 | 0.00 | 32 | 867.4 |
| 20260502210135 | 60 | 223 | 6.1 | 10.4 | 0.00 | 0.00 | 0.00 | 32 | 867.8 |
| 20260502200318 | 58 | 132 | 7.0 | 12.2 | 0.00 | 0.00 | 0.00 | 30 | 868.1 |
| 20260502192011 | 57 | 192 | 6.1 | 12.2 | 0.00 | 0.00 | 0.00 | 31 | 868.4 |
| 20260502181103 | 56 | 142 | 10.4 | 15.6 | 0.00 | 0.00 | 0.00 | 33 | 868.4 |
| 20260502170137 | 54 | 123 | 7.8 | 15.6 | 0.00 | 0.00 | 0.00 | 30 | 868.3 |
| 20260502162706 | 52 | 108 | 12.2 | 17.4 | 0.00 | 0.00 | 0.00 | 30 | 867.9 |
| 20260502150216 | 51 | 93 | 10.4 | 14.8 | 0.00 | 0.00 | 0.00 | 36 | 867.8 |
| 20260502140129 | 48 | 96 | 9.6 | 13.0 | 0.00 | 0.00 | 0.00 | 39 | 867.9 |
| 20260502130148 | 47 | 93 | 11.3 | 13.9 | 0.00 | 0.00 | 0.00 | 36 | 867.7 |
| 20260502120111 | 47 | 106 | 8.7 | 11.3 | 0.00 | 0.00 | 0.00 | 36 | 867.9 |
| 20260502110144 | 48 | 97 | 6.1 | 9.6 | 0.00 | 0.00 | 0.00 | 39 | 868.2 |
| 20260502100126 | 47 | 80 | 7.0 | 8.7 | 0.00 | 0.00 | 0.00 | 46 | 868.2 |
| 20260502090122 | 48 | 109 | 6.1 | 11.3 | 0.00 | 0.00 | 0.00 | 43 | 868.5 |